Weather History for KLVN - June, 2012

Change the Weather History Date:

Saturday, June 23, 2012

  Actual Average Record
Temperature  
Mean Temperature 68 °F -  
Max Temperature 75 °F 79 °F 93 °F (2005)
Min Temperature 60 °F 57 °F 35 °F (2001)
Cooling Degree Days 2    
Growing Degree Days 18 (Base 50)    
Moisture  
Dew Point 61 °F    
Average Humidity 80    
Maximum Humidity 100    
Minimum Humidity 57    
Precipitation  
Precipitation 0.00 in - - ()
Sea Level Pressure  
Sea Level Pressure 29.94 in    
Wind  
Wind Speed 2 mph (SSE)    
Max Wind Speed 13 mph    
Max Gust Speed 20 mph    
Visibility 10 miles    
Events Rain    
Averages and records for this station are not official NWS values.
T = Trace of Precipitation, MM = Missing Value Source: NWS Daily Summary

Daily Weather History Graph

Daily Weather History Graph

Search for Another Location

Airport or City:

Trip Planner

Search our weather history database for the weather conditions in past years. The results will help you decide how hot, cold, wet, or windy it might be!

Date:

Astronomy

Jun. 23, 2012 Rise Set
Actual Time 5:28 AM CDT 9:02 PM CDT
Civil Twilight 4:51 AM CDT 9:39 PM CDT
Nautical Twilight 4:02 AM CDT 10:28 PM CDT
Astronomical Twilight 2:58 AM CDT 11:32 PM CDT
Moon 9:40 AM CDT (6/23) 11:19 PM CDT (6/23)
Length of Visible Light 16h 47m
Length of Day
15h 33m
Waxing Crescent, 16% of the Moon is Illuminated
Jun 23
Waxing Crescent
Jun 26
First Quarter
Jul 3
Full
Jul 10
Last Quarter
Jul 18
New

Hourly Weather History & Observations

Time (CDT) Temp. Dew Point Humidity Pressure Visibility Wind Dir Wind Speed Gust Speed Precip Events Conditions
12:12 AM 62.6 °F 60.8 °F 94% 29.97 in 10.0 mi Calm Calm - N/A   Clear
12:31 AM 62.6 °F 60.8 °F 94% 29.97 in 10.0 mi Calm Calm - N/A   Clear
12:52 AM 62.6 °F 60.8 °F 94% 29.98 in 10.0 mi Calm Calm - N/A   Clear
1:12 AM 62.6 °F 60.8 °F 94% 29.97 in 10.0 mi Calm Calm - N/A   Clear
1:31 AM 62.6 °F 60.8 °F 94% 29.96 in 10.0 mi Calm Calm - N/A   Clear
1:52 AM 62.6 °F 60.8 °F 94% 29.96 in 10.0 mi Calm Calm - N/A   Clear
2:12 AM 62.6 °F 60.8 °F 94% 29.97 in 10.0 mi Calm Calm - N/A   Clear
2:31 AM 60.8 °F 60.8 °F 100% 29.97 in 10.0 mi Calm Calm - N/A   Clear
2:52 AM 60.8 °F 60.8 °F 100% 29.97 in 10.0 mi Calm Calm - N/A   Scattered Clouds
3:12 AM 62.6 °F 60.8 °F 94% 29.95 in 10.0 mi Calm Calm - N/A Rain Light Rain
3:31 AM 62.6 °F 60.8 °F 94% 29.94 in 10.0 mi ENE 4.6 mph - N/A Rain Rain
3:52 AM 62.6 °F 60.8 °F 94% 29.94 in 10.0 mi Calm Calm - N/A   Scattered Clouds
4:11 AM 62.6 °F 60.8 °F 94% 29.93 in 10.0 mi East 3.5 mph - N/A   Clear
4:32 AM 62.6 °F 60.8 °F 94% 29.93 in 10.0 mi Calm Calm - N/A   Clear
4:52 AM 62.6 °F 60.8 °F 94% 29.93 in 10.0 mi Calm Calm - N/A   Clear
5:12 AM 62.6 °F 60.8 °F 94% 29.94 in 10.0 mi Calm Calm - N/A   Clear
5:32 AM 60.8 °F 60.8 °F 100% 29.94 in 10.0 mi ESE 3.5 mph - N/A   Clear
5:52 AM 62.6 °F 60.8 °F 94% 29.95 in 10.0 mi Calm Calm - N/A   Clear
6:12 AM 62.6 °F 60.8 °F 94% 29.96 in 10.0 mi Calm Calm - N/A   Clear
6:32 AM 62.6 °F 60.8 °F 94% 29.97 in 10.0 mi Calm Calm - N/A   Clear
6:52 AM 62.6 °F 60.8 °F 94% 29.96 in 10.0 mi Calm Calm - N/A   Clear
7:11 AM 62.6 °F 60.8 °F 94% 29.95 in 10.0 mi Calm Calm - N/A   Clear
7:32 AM 64.4 °F 60.8 °F 88% 29.95 in 10.0 mi Calm Calm - N/A   Clear
7:51 AM 64.4 °F 60.8 °F 88% 29.95 in 10.0 mi Calm Calm - N/A   Clear
8:12 AM 64.4 °F 60.8 °F 88% 29.94 in 10.0 mi Calm Calm - N/A   Clear
8:32 AM 64.4 °F 60.8 °F 88% 29.95 in 10.0 mi Calm Calm - N/A   Clear
8:52 AM 66.2 °F 60.8 °F 83% 29.95 in 10.0 mi Calm Calm - N/A   Clear
9:12 AM 66.2 °F 62.6 °F 88% 29.96 in 10.0 mi SSE 3.5 mph - N/A   Clear
9:31 AM 68.0 °F 62.6 °F 83% 29.95 in 10.0 mi SE 4.6 mph - N/A   Clear
9:52 AM 69.8 °F 60.8 °F 73% 29.95 in 10.0 mi SSE 5.8 mph - N/A   Clear
10:12 AM 71.6 °F 60.8 °F 69% 29.95 in 10.0 mi South 9.2 mph - N/A   Clear
10:31 AM 71.6 °F 60.8 °F 69% 29.95 in 10.0 mi South 6.9 mph - N/A   Clear
10:52 AM 71.6 °F 60.8 °F 69% 29.95 in 10.0 mi South 6.9 mph - N/A   Scattered Clouds
11:12 AM 69.8 °F 60.8 °F 73% 29.95 in 10.0 mi South 4.6 mph - N/A   Overcast
11:31 AM 69.8 °F 60.8 °F 73% 29.95 in 10.0 mi South 3.5 mph - N/A   Overcast
11:52 AM 69.8 °F 60.8 °F 73% 29.95 in 10.0 mi Calm Calm - N/A   Mostly Cloudy
12:12 PM 69.8 °F 60.8 °F 73% 29.95 in 10.0 mi South 3.5 mph - N/A   Scattered Clouds
12:31 PM 69.8 °F 62.6 °F 78% 29.95 in 10.0 mi SSE 5.8 mph - N/A   Scattered Clouds
12:52 PM 71.6 °F 60.8 °F 69% 29.95 in 10.0 mi South 10.4 mph - N/A   Scattered Clouds
1:12 PM 69.8 °F 60.8 °F 73% 29.95 in 10.0 mi South 6.9 mph - N/A   Mostly Cloudy
1:31 PM 69.8 °F 60.8 °F 73% 29.95 in 10.0 mi South 4.6 mph - N/A   Overcast
1:52 PM 69.8 °F 60.8 °F 73% 29.95 in 10.0 mi South 5.8 mph - N/A   Mostly Cloudy
2:12 PM 69.8 °F 60.8 °F 73% 29.94 in 10.0 mi South 4.6 mph - N/A   Overcast
2:31 PM 69.8 °F 59.0 °F 68% 29.93 in 10.0 mi SSE 6.9 mph - N/A   Overcast
2:52 PM 73.4 °F 60.8 °F 65% 29.92 in 10.0 mi SSE 9.2 mph - N/A   Scattered Clouds
3:12 PM 73.4 °F 60.8 °F 65% 29.93 in 10.0 mi South 10.4 mph - N/A   Mostly Cloudy
3:31 PM 73.4 °F 60.8 °F 65% 29.92 in 10.0 mi South 11.5 mph - N/A   Mostly Cloudy
3:52 PM 75.2 °F 60.8 °F 61% 29.92 in 10.0 mi South 11.5 mph 16.1 mph N/A   Mostly Cloudy
4:12 PM 73.4 °F 57.2 °F 57% 29.92 in 10.0 mi South 8.1 mph - N/A   Overcast
4:31 PM 71.6 °F 57.2 °F 60% 29.93 in 10.0 mi South 11.5 mph - N/A   Overcast
4:52 PM 71.6 °F 59.0 °F 64% 29.92 in 10.0 mi South 11.5 mph - N/A   Overcast
5:12 PM 73.4 °F 60.8 °F 65% 29.91 in 10.0 mi South 12.7 mph 19.6 mph N/A   Scattered Clouds
5:31 PM 73.4 °F 60.8 °F 65% 29.90 in 10.0 mi South 11.5 mph 17.3 mph N/A   Clear
5:52 PM 73.4 °F 60.8 °F 65% 29.90 in 10.0 mi South 8.1 mph - N/A   Scattered Clouds
6:12 PM 73.4 °F 62.6 °F 69% 29.90 in 10.0 mi South 8.1 mph - N/A   Scattered Clouds
6:31 PM 73.4 °F 60.8 °F 65% 29.90 in 10.0 mi South 8.1 mph - N/A   Clear
6:52 PM 73.4 °F 60.8 °F 65% 29.90 in 10.0 mi South 9.2 mph - N/A   Clear
7:12 PM 73.4 °F 62.6 °F 69% 29.90 in 10.0 mi South 6.9 mph - N/A   Clear
7:31 PM 73.4 °F 62.6 °F 69% 29.89 in 10.0 mi SSE 8.1 mph - N/A   Clear
7:52 PM 73.4 °F 62.6 °F 69% 29.91 in 10.0 mi South 4.6 mph - N/A   Clear
8:12 PM 71.6 °F 62.6 °F 73% 29.91 in 10.0 mi South 3.5 mph - N/A   Clear
8:31 PM 71.6 °F 62.6 °F 73% 29.92 in 10.0 mi Calm Calm - N/A   Scattered Clouds
8:52 PM 71.6 °F 62.6 °F 73% 29.93 in 7.0 mi Calm Calm - N/A   Overcast
9:12 PM 69.8 °F 64.4 °F 83% 29.94 in 7.0 mi Calm Calm - N/A   Overcast
9:32 PM 69.8 °F 62.6 °F 78% 29.94 in 10.0 mi SE 3.5 mph - N/A   Overcast
9:52 PM 69.8 °F 64.4 °F 83% 29.94 in 10.0 mi Calm Calm - N/A   Overcast
10:11 PM 69.8 °F 62.6 °F 78% 29.94 in 10.0 mi Calm Calm - N/A   Overcast
10:32 PM 69.8 °F 62.6 °F 78% 29.94 in 10.0 mi Calm Calm - N/A   Overcast
10:52 PM 69.8 °F 62.6 °F 78% 29.93 in 10.0 mi SSE 3.5 mph - N/A   Overcast
11:11 PM 68.0 °F 62.6 °F 83% 29.93 in 10.0 mi SSE 3.5 mph - N/A   Overcast
11:32 PM 66.2 °F 62.6 °F 88% 29.93 in 10.0 mi Calm Calm - N/A   Scattered Clouds
11:52 PM 66.2 °F 62.6 °F 88% 29.93 in 10.0 mi Calm Calm - N/A   Clear